Regional Weather Roundup
Issued by NWS Midland/Odessa, TX

Home | Current Version | Previous Version | Text Only | Print | Product List | Glossary On
Versions: 1 2 3 4 5 6 7 8 9 10 11 12 13 14 15 16 17 18 19 20 21 22 23 24 25 26 27 28 29 30 31 32 33 34 35 36 37 38 39 40 41 42 43 44 45 46 47 48 49 50
000
ASUS44 KMAF 061110
RWRMAF
MIDLAND AREA WEATHER ROUNDUP
NATIONAL WEATHER SERVICE MIDLAND TX
600 AM CDT FRI MAY 06 2016

...IN SOUTHWEST TEXAS AND SOUTHEAST NEW MEXICO...

CITY           SKY/WX    TMP DP  RH WIND       PRES   REMARKS
ALPINE         CLEAR     67  33  28 S16G30    30.09F
ANDREWS        FAIR      55  38  51 S7        30.04S
ARTESIA        PTCLDY    57  28  33 S5        30.00S
BIG SPRING     CLOUDY    62  39  43 SE13      30.05S
CARLSBAD       PTCLDY    59  27  29 S10       29.97S
DRYDEN           N/A     61  39  44 N8        30.00S
FORT STOCKTON  CLEAR     68  36  30 SE16G29   29.98S
GUAD PASS      CLEAR     66  27  23 E9        30.08S
HOBBS          CLOUDY    50  34  53 SE7       30.04F
MARFA          CLEAR     48  30  49 E5        30.09F
MIDLAND AIRPK  CLOUDY    64  40  41 S9        30.04S
MIDLAND INTL   CLOUDY    57  39  51 SE9       30.03S
ODESSA         CLOUDY    62  37  39 S9        30.03S
PECOS          PTCLDY    58  32  36 E8        29.97F
PRESIDIO       FAIR      72  35  25 NE10      29.96R
SEMINOLE       CLOUDY    54  38  55 CALM      30.05S
SNYDER           N/A     59  47  63 SE7       30.05S
WINK           CLOUDY    62  35  36 SE12      29.98F
$$
...OTHER STATIONS IN TEXAS...

CITY           SKY/WX    TMP DP  RH WIND       PRES   REMARKS
ABILENE        CLOUDY    57  52  83 SE9       30.05S
AMARILLO       CLOUDY    54  45  71 S15       30.06R
AUSTIN         CLEAR     56  54  93 CALM      30.05R
BROWNSVILLE    CLEAR     62  62 100 S5        30.00R
CORPUS CHRISTI PTCLDY    64  59  83 CALM      30.01R
DALLAS FTW     PTCLDY    58  49  72 N3        30.05R
DEL RIO        CLEAR     59  49  69 E3        30.00F
EL PASO        PTCLDY    67  24  19 CALM      29.92F
HOUSTON INT    PTCLDY    57  52  83 CALM      30.03R
LUBBOCK        CLOUDY    62  41  46 S15       30.04S
SAN ANGELO     CLEAR     54  47  77 CALM      30.03S
SAN ANTONIO    CLEAR     64  54  69 CALM      30.05R
WACO           CLEAR     50  48  93 W6        30.06R
WICHITA FALLS  NOT AVBL
$$
...OTHER LOCATIONS IN NEW MEXICO...

CITY           SKY/WX    TMP DP  RH WIND       PRES   REMARKS
ALAMAGORDO     CLEAR     68  23  18 SW15      29.93S
ALBUQUERQUE    CLOUDY    63  25  23 CALM      29.98S
CANNON AFB     CLOUDY    54  34  47 S6        30.07S
CLOVIS         CLOUDY    52  34  50 S6        30.08S
HOLLOMAN AFB   CLEAR     67  23  19 S16       29.92S
ROSWELL        CLOUDY    55  27  34 N5        30.00F
RUIDOSO          N/A     46  21  36 S7        30.13F
SANTA FE       LGT RAIN  59  26  28 SE6       30.05F
TRUTH OR CONSE CLEAR     60  33  36 NW5       29.93S
TUCUMCARI      CLOUDY    53  32  44 W5        30.04R
$$



USA.gov is the U.S. government's official web portal to all federal, state and local government web resources and services.